Home > Weather > Malakal > Past weeks

Flag for South Sudan Past Weather in Malakal, South Sudan — Yesterday and Last 2 Weeks

Now
90 °F

Clear.


Feels Like: 91 °F
Forecast: 73 / 77 °F
Wind: 10 mph from Southwest

Location: Khartoum Airport

Current Time: Jul 27, 2016 at 4:51:04 AM

Latest Report: Jul 27, 2016 at 4:00 AM


Visibility: 10 mi

Pressure: 29.77 "Hg

Humidity: 43%

Dew Point: 64 °F

Location of MalakalLocation

Past Weather in Malakal — Graph

°F

Malakal Temperature Yesterday

Maximum temperature yesterday: 99 °F (at 4:00 PM)
Minimum temperature yesterday: 82 °F (at 5:00 AM)
Average temperature yesterday: 91 °F

High & Low Weather Summary for the Past Weeks

 TemperatureHumidityPressure
High106 °F (Jul 23, 3:00 PM)94% (Jul 14, 12:00 AM)29.98 "Hg (Jul 14, 12:00 AM)
Low70 °F (Jul 20, 4:00 AM)11% (Jul 23, 7:00 PM)29.65 "Hg (Jul 23, 4:30 PM)
Average89 °F48%29.82 "Hg
* Reported Jul 12 3:00 AM — Jul 27 3:30 AM, Malakal, Weather by CustomWeather, © 2016

Note: Actual official high and low records may vary slightly from our data, if they occured in-between our weather recording intervals... More about our weather records

Advertising

Malakal Weather History for the Previous 24 Hours

Scroll right to see more
 ConditionsComfort  
Time TempWeatherWind HumidityBarometerVisibility
3:30 AM
Wed, Jul 27
90 °FClear.8 mph41%29.80 "Hg10 mi
3:00 AM90 °FClear.9 mph41%29.83 "Hg10 mi
2:30 AM91 °FClear.12 mph36%29.80 "Hg10 mi
2:00 AM91 °FClear.5 mph36%29.80 "Hg10 mi
1:30 AM93 °FClear.3 mph32%29.80 "Hg10 mi
1:00 AM93 °FClear.3 mph32%29.80 "Hg10 mi
12:30 AM95 °FClear.5 mph30%29.80 "Hg10 mi
11:30 PM
Tue, Jul 26
95 °FClear.3 mph30%29.83 "Hg10 mi
11:00 PM95 °FClear.5 mph30%29.83 "Hg10 mi
10:30 PM95 °FClear.6 mph30%29.80 "Hg10 mi
10:00 PM95 °FClear.5 mph30%29.80 "Hg10 mi
9:30 PM95 °FClear.5 mph32%29.80 "Hg10 mi
9:00 PM95 °FClear.8 mph30%29.77 "Hg10 mi
8:30 PM97 °FClear.9 mph27%29.77 "Hg10 mi
8:00 PM97 °FClear.7 mph27%29.77 "Hg10 mi
7:30 PM97 °FClear.9 mph27%29.74 "Hg10 mi
7:00 PM97 °FSunny.12 mph27%29.74 "Hg10 mi
6:30 PM99 °FPassing clouds.9 mph27%29.74 "HgN/A
6:00 PM99 °FPassing clouds.12 mph27%29.74 "HgN/A
5:30 PM99 °FPassing clouds.8 mph27%29.74 "HgN/A
5:00 PM99 °FPassing clouds.13 mph27%29.74 "HgN/A
4:30 PM99 °FPassing clouds.12 mph27%29.74 "HgN/A
4:00 PM99 °FPassing clouds.12 mph27%29.77 "HgN/A
3:30 PM97 °FPassing clouds.12 mph30%29.77 "HgN/A
3:00 PM97 °FPassing clouds.13 mph30%29.80 "HgN/A
2:30 PM97 °FPassing clouds.10 mph30%29.80 "HgN/A
2:00 PM97 °FPassing clouds.12 mph30%29.80 "HgN/A
1:00 PM95 °FPassing clouds.12 mph34%29.83 "HgN/A
12:30 PM95 °FPassing clouds.15 mph34%29.83 "HgN/A
12:00 PM95 °FSunny.15 mph34%29.83 "Hg10 mi
11:30 AM93 °FSunny.14 mph39%29.83 "Hg10 mi
11:00 AM91 °FSunny.14 mph44%29.83 "Hg10 mi
10:30 AM91 °FSunny.14 mph44%29.86 "Hg10 mi
10:00 AM90 °FSunny.14 mph43%29.83 "Hg10 mi
9:30 AM88 °FSunny.14 mph49%29.83 "Hg10 mi
9:00 AM86 °FSunny.8 mph52%29.83 "Hg10 mi
8:30 AM84 °FSunny.8 mph58%29.83 "Hg10 mi
8:00 AM84 °FSunny.7 mph58%29.83 "Hg10 mi
7:30 AM82 °FSunny.5 mph66%29.83 "Hg10 mi
7:00 AM82 °FSunny.7 mph66%29.80 "Hg10 mi
6:30 AM82 °FSunny.8 mph66%29.80 "Hg10 mi
6:00 AM82 °FClear.12 mph58%29.80 "Hg10 mi
5:30 AM82 °FClear.10 mph58%29.80 "Hg10 mi
5:00 AM82 °FClear.12 mph58%29.77 "Hg10 mi
4:30 AM84 °FClear.9 mph51%29.77 "Hg10 mi
4:00 AM84 °FClear.10 mph51%29.77 "Hg10 mi
Weather by CustomWeather, © 2016

See weather overviewHow to use our weather pages